Frisco, NC

3:07 PM EST on January 19, 2017 (GMT -0500)
Mitchell

Weather History for KHSE - March, 2014

Change the Weather History Date:

Saturday, March 29, 2014

  Actual Average Record
Temperature  
Mean Temperature 62 °F 55 °F  
Max Temperature 66 °F 62 °F 81 °F (1907)
Min Temperature 58 °F 48 °F 30 °F (1966)
Degree Days  
Heating Degree Days 3 10  
Month to date heating degree days 474 398  
Since 1 July heating degree days 2307 2322  
Cooling Degree Days 0 0  
Month to date cooling degree days 0 0  
Year to date cooling degree days 0 0  
Growing Degree Days 10 (Base 50)    
Moisture  
Dew Point 61 °F    
Average Humidity 94    
Maximum Humidity 100    
Minimum Humidity 87    
Precipitation  
Precipitation 0.37 in 0.15 in 2.61 in (2010)
Month to date precipitation 5.48 4.45  
Year to date precipitation 15.57 13.71  
Snow  
Snow 0.00 in - - ()
Month to date snowfall 0.0  
Since 1 July snowfall 5.7  
Snow Depth 0.00 in    
Sea Level Pressure  
Sea Level Pressure 29.88 in    
Wind  
Wind Speed 15 mph (South)    
Max Wind Speed 26 mph    
Max Gust Speed 34 mph    
Visibility 4 miles    
Events Rain    
T = Trace of Precipitation, MM = Missing Value Source: NWS Daily Summary

Daily Weather History Graph

Daily Weather History Graph

Search for Another Location

Airport or City:

Trip Planner

Search our weather history database for the weather conditions in past years. The results will help you decide how hot, cold, wet, or windy it might be!

Date:

Astronomy

Mar. 29, 2014 Rise Set
Actual Time 6:53 AM EDT 7:21 PM EDT
Civil Twilight 6:27 AM EDT 7:47 PM EDT
Nautical Twilight 5:58 AM EDT 8:16 PM EDT
Astronomical Twilight 5:27 AM EDT 8:47 PM EDT
Moon 5:58 AM EDT (3/29) 6:25 PM EDT (3/29)
Length of Visible Light 13h 19m
Length of Day
12h 28m
Waning Crescent, 2% of the Moon is Illuminated
Mar 29
Waning Crescent
Mar 30
New
Apr 7
First Quarter
Apr 15
Full
Apr 22
Last Quarter

Hourly Weather History & Observations

Time (EDT) Temp. Dew Point Humidity Pressure Visibility Wind Dir Wind Speed Gust Speed Precip Events Conditions
12:51 AM 60.1 °F 57.9 °F 93% 30.18 in 7.0 mi SSW 8.1 mph - 0.00 in   Overcast
1:51 AM 57.9 °F 55.9 °F 93% 30.16 in 8.0 mi SSW 8.1 mph - N/A   Mostly Cloudy
2:51 AM 59.0 °F 57.0 °F 93% 30.14 in 6.0 mi South 6.9 mph - N/A   Overcast
3:25 AM 60.1 °F 57.9 °F 93% 30.13 in 7.0 mi South 10.4 mph - 0.01 in   Mostly Cloudy
3:51 AM 60.1 °F 57.9 °F 93% 30.12 in 7.0 mi SSW 10.4 mph - 0.01 in   Overcast
4:51 AM 61.0 °F 57.9 °F 90% 30.11 in 7.0 mi SSW 11.5 mph - N/A   Overcast
5:51 AM 61.0 °F 57.0 °F 87% 30.10 in 8.0 mi South 15.0 mph - N/A   Overcast
6:51 AM 60.1 °F 57.0 °F 90% 30.09 in 7.0 mi SSW 9.2 mph - N/A   Overcast
7:51 AM 61.0 °F 59.0 °F 93% 30.10 in 5.0 mi South 10.4 mph - 0.00 in   Mostly Cloudy
8:51 AM 63.0 °F 61.0 °F 93% 30.09 in 5.0 mi South 9.2 mph - N/A   Overcast
9:51 AM 62.1 °F 59.0 °F 90% 30.08 in 6.0 mi South 13.8 mph - N/A   Mostly Cloudy
10:51 AM 62.1 °F 59.0 °F 90% 30.06 in 5.0 mi South 11.5 mph - 0.00 in   Mostly Cloudy
11:51 AM 63.0 °F 59.0 °F 87% 30.03 in 6.0 mi South 15.0 mph - 0.00 in   Overcast
12:51 PM 64.0 °F 60.1 °F 87% 29.99 in 5.0 mi South 18.4 mph 25.3 mph N/A   Overcast
1:51 PM 63.0 °F 61.0 °F 93% 29.95 in 4.0 mi South 19.6 mph - 0.00 in   Overcast
2:51 PM 64.0 °F 61.0 °F 90% 29.90 in 5.0 mi South 20.7 mph 27.6 mph 0.00 in   Overcast
3:51 PM 64.9 °F 60.1 °F 84% 29.87 in 5.0 mi South 18.4 mph 26.5 mph N/A   Haze
4:43 PM 63.0 °F 61.0 °F 93% 29.84 in 2.5 mi South 21.9 mph 33.4 mph 0.04 in Rain Light Rain
4:51 PM 63.0 °F 61.0 °F 93% 29.83 in 2.5 mi South 21.9 mph - 0.05 in Rain Light Rain
5:00 PM 64.0 °F 62.1 °F 93% 29.83 in 4.0 mi South 23.0 mph 29.9 mph 0.00 in Rain Light Rain
5:20 PM 64.0 °F 62.1 °F 93% 29.81 in 2.0 mi South 18.4 mph 33.4 mph 0.01 in Rain Light Rain
5:33 PM 64.0 °F 63.0 °F 96% 29.81 in 3.0 mi South 21.9 mph 29.9 mph 0.01 in Rain Light Rain
5:44 PM 64.0 °F 63.0 °F 96% 29.80 in 2.5 mi South 21.9 mph 32.2 mph 0.02 in Rain Light Rain
5:51 PM 64.0 °F 63.0 °F 96% 29.80 in 3.0 mi South 21.9 mph 29.9 mph 0.02 in Rain Light Rain
6:14 PM 64.0 °F 63.0 °F 96% 29.79 in 3.0 mi South 23.0 mph - 0.00 in Rain Light Rain
6:36 PM 64.0 °F 63.0 °F 96% 29.79 in 2.5 mi South 18.4 mph 26.5 mph 0.00 in Rain Light Rain
6:43 PM 64.0 °F 64.0 °F 100% 29.79 in 1.2 mi SSW 20.7 mph 29.9 mph 0.02 in Rain Heavy Rain
6:51 PM 64.0 °F 63.0 °F 96% 29.78 in 0.8 mi South 17.3 mph 28.8 mph 0.07 in Rain Rain
7:12 PM 64.9 °F 64.9 °F 100% 29.78 in 1.0 mi SSW 21.9 mph 33.4 mph 0.22 in Rain Light Rain
7:16 PM 64.0 °F 64.0 °F 100% 29.78 in 2.5 mi SSW 15.0 mph 29.9 mph 0.22 in Rain Light Rain
7:38 PM 63.0 °F 63.0 °F 100% 29.76 in 4.0 mi SSW 17.3 mph 25.3 mph 0.22 in   Scattered Clouds
7:51 PM 63.0 °F 63.0 °F 100% 29.75 in 4.0 mi South 16.1 mph 24.2 mph 0.22 in   Scattered Clouds
8:51 PM 64.0 °F 63.0 °F 96% 29.73 in 5.0 mi South 19.6 mph 31.1 mph N/A   Mostly Cloudy
9:14 PM 64.0 °F 63.0 °F 96% 29.72 in 4.0 mi South 16.1 mph - N/A   Mostly Cloudy
9:33 PM 64.0 °F 63.0 °F 96% 29.71 in 4.0 mi South 20.7 mph - 0.00 in Rain Light Rain
9:51 PM 64.9 °F 64.0 °F 97% 29.70 in 5.0 mi South 21.9 mph 33.4 mph 0.00 in Rain Light Rain
10:16 PM 64.9 °F 64.0 °F 97% 29.69 in 4.0 mi South 17.3 mph 25.3 mph 0.00 in   Overcast
10:51 PM 63.0 °F 63.0 °F 100% 29.68 in 4.0 mi SSW 13.8 mph 24.2 mph 0.00 in   Partly Cloudy
11:32 PM 62.1 °F 62.1 °F 100% 29.66 in 2.5 mi SSW 11.5 mph - N/A   Mostly Cloudy
11:51 PM 61.0 °F 61.0 °F 100% 29.65 in 2.0 mi SSW 8.1 mph - N/A   Overcast
11:59 PM 61.0 °F 61.0 °F 100% 29.65 in 2.5 mi SSW 8.1 mph - N/A   Overcast